GFSMW_925_spd_132.txt.gz
Wind_Speed
22 22 23 21 23 21 17 14 21 16 13 9 12 13 14 10 9 10 7 8 8 2 7 7 5 3 21 20 8 5 5 9 5 15 22 31 25 26 27 23 32 3 5
16 23 25 23 26 25 21 19 18 15 13 10 7 4 11 11 10 8 4 4 2 2 4 5 35 10 17 20 7 5 8 14 24 11 23 6 17 28 31 20 39 19 5
20 17 22 25 26 26 24 22 19 13 16 8 7 6 10 6 12 8 12 7 4 3 3 1 7 4 7 12 7 13 11 8 14 10 10 3 4 9 6 11 14 24 15
20 17 21 20 26 26 25 26 22 18 13 10 7 7 13 10 9 12 9 10 7 5 5 3 1 1 2 5 10 10 6 4 15 22 10 12 14 4 2 20 22 17 2
18 10 22 24 27 27 23 24 21 19 15 13 10 8 6 5 10 1 15 9 6 6 4 4 3 5 8 9 8 5 8 9 10 11 6 14 14 8 1 2 13 14 7
19 23 25 29 26 28 25 26 23 20 16 14 14 15 4 11 12 12 7 9 12 10 12 6 3 2 4 6 5 6 7 8 9 12 16 16 14 10 8 4 13 6 8
11 12 18 21 26 28 27 29 26 22 19 17 16 14 12 12 11 5 6 7 8 8 14 9 5 2 4 4 6 7 7 8 9 12 11 15 17 17 5 9 10 8 12
12 24 18 25 25 29 27 30 29 23 20 19 18 15 12 12 12 9 8 5 7 6 8 4 5 4 5 6 7 9 10 8 3 10 9 12 14 17 20 3 7 4 9
13 13 20 26 25 30 27 27 30 25 23 21 19 19 15 14 13 11 10 7 5 10 15 13 9 5 6 8 10 8 11 12 8 8 12 11 11 16 17 9 11 3 3
13 13 19 25 27 30 29 25 32 27 24 22 22 19 19 17 17 11 4 3 7 6 3 8 11 8 9 8 8 11 11 10 14 12 8 10 10 14 15 11 18 11 9
25 15 7 25 28 25 30 28 28 28 24 22 23 20 21 19 17 13 13 13 4 8 9 9 8 8 9 9 9 12 14 12 10 13 13 12 10 12 15 17 15 17 12
6 10 18 10 26 24 28 28 29 28 25 24 21 22 21 21 21 18 13 10 10 9 10 11 8 8 9 9 10 11 12 12 13 14 15 13 10 11 12 14 14 14 10
10 10 17 25 20 22 20 22 20 29 29 24 23 21 20 20 19 21 16 15 14 12 10 9 9 9 9 10 10 11 12 13 14 14 15 15 11 11 13 16 16 11 11
10 6 15 24 13 20 17 28 26 14 27 26 25 22 20 19 17 15 12 9 11 11 10 11 10 9 10 10 12 12 13 13 13 12 14 16 13 14 14 16 14 13 10
11 5 5 13 29 2 6 5 20 25 20 24 23 24 23 19 18 18 19 17 14 12 13 13 13 12 13 12 15 16 15 13 11 12 14 15 16 18 18 14 15 13 14
12 10 8 10 19 13 12 10 13 7 13 11 9 14 24 22 19 16 15 17 17 17 17 18 16 16 16 17 14 7 11 12 12 13 14 14 17 18 16 14 15 16 14
9 7 4 4 3 3 8 10 2 6 6 8 9 9 8 17 18 18 19 18 17 15 17 19 18 17 16 18 14 11 12 11 12 12 12 12 12 12 11 17 15 15 14
7 6 6 5 2 3 10 6 6 4 10 9 7 7 10 10 12 16 14 15 16 15 20 20 19 18 15 17 16 16 15 13 12 10 10 11 11 14 15 12 11 6 7
5 6 6 5 1 3 1 10 1 1 4 9 10 9 9 9 11 13 12 13 12 12 12 15 15 18 14 16 16 15 13 10 8 7 8 9 10 10 11 12 9 9 5
8 5 7 6 4 4 1 4 10 6 3 4 8 10 10 7 2 1 1 4 4 6 6 6 6 9 7 10 13 12 11 11 4 4 5 7 4 4 3 4 3 6 5
9 11 9 8 7 7 9 5 12 11 7 6 10 11 11 8 5 2 2 1 1 2 5 6 6 4 0 3 5 1 1 4 2 5 5 2 2 3 4 6 7 8 5
11 12 11 12 13 12 12 15 14 13 12 13 11 10 8 8 8 5 5 5 7 9 10 11 12 11 9 6 6 4 2 2 1 1 3 2 5 5 4 3 3 2 1
6 11 14 14 12 13 10 12 8 8 8 10 12 11 11 13 12 9 8 8 8 8 8 9 8 7 8 10 9 5 5 6 6 5 6 9 8 8 8 8 5 3 1
8 9 12 13 14 13 11 9 10 10 11 12 10 11 12 10 11 9 8 7 6 7 9 8 6 4 6 6 6 6 8 9 10 11 11 11 10 10 11 10 9 6 6
9 9 9 11 13 14 13 10 9 10 12 12 12 12 14 13 15 13 10 8 8 7 8 6 7 4 4 8 10 9 9 9 9 7 7 8 9 9 9 9 9 8 8
8 8 9 10 13 13 11 10 9 13 13 12 11 11 12 10 14 14 15 14 12 11 9 9 8 12 11 11 12 12 12 10 9 9 7 6 6 7 6 5 6 3 1

GFSMW_925_spd_135.txt.gz
Wind_Speed
13 18 28 31 28 24 24 26 24 19 18 14 10 8 17 12 11 13 10 7 10 8 5 1 5 6 13 3 8 18 12 12 14 6 6 3 10 8 16 12 11 6 21
14 17 24 29 30 27 25 28 24 19 18 12 12 8 5 4 11 13 12 9 10 18 17 3 12 3 2 8 14 18 10 20 17 10 5 5 5 6 12 5 14 11 23
19 11 26 29 29 29 28 30 24 20 15 11 10 9 10 5 12 14 10 8 11 7 4 8 5 7 7 3 10 9 9 4 9 9 5 3 4 12 7 10 16 18 18
18 15 18 27 32 32 33 32 28 24 18 12 13 8 11 6 10 9 11 13 8 5 7 5 2 5 7 4 7 2 4 4 1 5 2 5 13 4 4 5 8 8 16
16 19 21 27 34 33 37 33 28 22 21 17 14 12 12 8 8 5 12 15 14 9 7 7 3 1 1 4 4 3 4 5 3 4 3 2 16 27 11 1 6 19 17
13 14 28 27 32 33 34 34 30 26 22 20 18 14 10 10 10 11 13 14 11 7 9 9 8 8 4 3 2 3 2 2 1 5 7 6 4 7 11 3 4 8 6
16 13 16 23 32 31 33 34 33 28 24 20 18 15 13 10 10 10 9 8 7 5 8 8 7 6 4 3 2 4 2 2 4 6 7 8 14 12 17 6 3 3 4
11 15 14 23 33 33 35 34 35 31 26 23 19 18 15 12 11 11 10 7 7 8 9 15 9 6 6 5 6 7 5 3 3 8 5 10 12 10 13 14 8 4 2
7 15 21 23 33 32 34 35 36 33 30 27 22 22 19 16 13 10 7 8 8 11 12 12 9 9 8 9 7 7 7 7 5 7 6 8 11 7 10 11 15 4 3
8 4 15 25 33 33 36 36 39 36 33 30 26 24 21 18 18 10 8 8 12 12 9 5 6 7 6 10 7 9 8 7 5 6 6 7 9 8 7 7 11 9 3
16 5 11 9 32 32 36 36 35 36 33 30 29 26 24 21 21 15 15 15 10 8 6 7 5 6 7 6 7 7 8 7 7 8 8 9 9 10 8 7 5 8 8
15 2 11 16 9 29 33 36 35 34 34 31 30 29 26 24 22 20 17 15 13 12 10 9 9 9 8 9 8 9 7 8 8 7 7 9 8 7 9 8 5 7 7
7 8 8 18 19 16 26 34 34 32 31 28 28 30 27 27 25 24 21 19 16 12 11 10 13 9 9 11 10 9 10 9 8 7 8 8 8 8 9 10 11 9 5
5 7 8 13 20 23 7 17 29 28 25 28 28 30 28 26 25 22 25 21 16 18 15 15 14 14 12 11 11 11 11 10 8 9 8 9 8 10 11 12 12 11 7
7 2 4 9 14 22 28 17 31 30 23 10 31 30 29 27 23 21 17 18 17 17 17 17 16 14 13 13 12 13 14 12 10 10 9 9 10 12 12 13 15 12 11
8 8 6 9 13 13 21 25 12 29 27 27 32 36 32 29 26 23 21 21 19 18 17 16 14 14 13 12 12 9 5 6 5 8 9 10 12 10 9 10 10 11 12
5 7 3 11 10 14 12 23 3 21 28 22 19 27 29 27 24 18 16 18 15 14 13 12 14 16 14 14 15 13 6 6 8 8 7 7 7 11 10 10 12 10 10
2 5 7 7 13 3 8 8 1 6 9 16 18 8 5 10 13 13 12 9 10 10 11 10 13 12 11 12 11 8 7 8 7 8 8 7 7 8 11 12 12 7 3
3 7 2 5 4 2 4 5 7 8 5 7 6 7 6 7 10 8 6 7 6 4 4 5 8 7 6 7 6 6 7 4 4 3 3 2 4 7 8 9 8 5 8
2 2 2 2 4 5 3 4 2 7 10 4 1 2 3 7 8 8 8 8 5 3 1 3 4 4 4 6 8 9 5 2 3 2 1 3 4 5 6 9 8 11 9
7 6 6 8 5 4 6 15 14 11 9 9 9 10 9 9 7 8 7 7 8 6 6 7 8 6 5 5 4 3 2 3 3 2 2 3 2 2 4 6 6 7 5
7 7 5 8 9 8 16 18 16 13 18 18 17 16 13 13 10 10 12 10 10 11 11 11 12 12 10 8 6 6 6 5 4 4 5 4 3 1 1 2 2 3 6
12 9 10 7 8 7 6 13 11 11 10 11 14 15 15 16 15 16 15 15 12 12 12 12 11 10 10 12 12 9 9 9 9 10 11 12 13 14 14 12 11 9 9
10 10 9 9 6 8 7 7 9 10 11 13 13 14 15 15 15 14 13 13 11 9 10 10 11 10 8 5 5 8 11 11 12 12 12 11 12 11 10 11 9 9 9
8 11 8 8 9 7 9 9 8 10 13 12 11 12 12 11 12 13 12 10 10 11 11 11 11 7 8 8 9 10 9 9 9 9 10 11 11 11 11 11 12 11 9
13 12 11 10 11 9 10 12 11 11 15 14 13 15 17 16 16 18 19 15 13 10 9 9 7 12 13 14 13 13 12 11 10 9 9 9 9 8 7 7 8 8 7

GFSMW_925_spd_138.txt.gz
Wind_Speed
15 27 32 32 29 34 33 27 27 23 19 16 17 16 14 14 11 14 11 10 8 5 3 3 5 11 8 5 2 1 9 14 8 3 5 5 3 4 9 10 3 1 4
9 23 30 29 33 36 32 28 27 23 20 17 13 13 17 11 16 15 14 10 6 4 5 5 8 9 10 10 4 2 3 3 8 5 2 4 3 10 7 11 12 5 2
10 16 28 30 27 32 36 33 29 26 22 18 14 11 11 10 15 12 13 10 4 6 6 11 6 6 5 8 7 3 4 4 6 6 2 1 2 6 11 14 17 5 2
9 13 24 26 28 34 37 31 32 30 24 20 15 13 12 14 17 18 15 12 9 4 5 5 6 6 9 6 4 3 3 3 2 4 4 2 3 1 4 15 17 12 11
14 13 23 28 32 34 35 35 31 29 25 24 18 15 13 13 15 15 16 14 12 8 6 5 5 3 4 3 1 2 2 2 2 1 2 4 3 3 3 4 11 15 9
6 10 23 27 29 31 32 37 36 31 27 24 19 17 17 16 14 15 20 20 16 11 10 9 8 7 7 5 3 1 1 2 2 2 4 6 4 3 5 5 11 11 6
6 6 14 25 27 29 30 33 35 32 30 28 23 19 17 16 17 19 19 18 16 16 15 13 12 9 8 6 4 1 2 2 5 8 7 8 7 6 6 6 5 3 2
6 7 10 26 30 31 33 32 35 34 31 30 27 23 20 18 17 20 15 16 17 14 16 16 15 12 9 6 4 5 4 5 6 8 6 8 8 5 4 4 4 2 2
4 6 13 28 31 32 34 37 37 36 34 33 30 26 23 19 18 15 13 14 15 13 13 17 16 12 10 9 8 8 8 8 9 9 9 6 8 2 1 4 7 1 1
6 3 6 24 34 36 36 36 41 40 39 34 32 31 28 24 20 15 13 17 16 15 15 15 13 13 10 10 8 9 9 8 7 7 8 9 8 7 5 5 3 3 0
7 3 6 10 30 33 35 35 36 36 36 35 33 30 30 27 24 20 17 15 16 15 14 10 10 10 11 10 11 9 9 11 11 11 11 11 9 9 8 5 4 2 1
2 5 8 4 11 27 29 33 33 34 38 35 33 32 28 26 26 25 21 17 16 14 12 12 11 10 11 12 12 11 9 9 10 11 10 10 9 8 8 9 7 6 6
3 4 6 7 9 9 23 26 28 35 36 35 37 35 32 30 29 27 24 21 20 18 15 15 16 15 14 12 14 13 11 11 11 10 10 11 11 11 10 9 9 9 8
3 5 4 2 13 12 13 10 21 25 36 38 37 37 34 31 29 28 26 24 24 21 20 20 18 18 15 13 13 14 13 13 13 10 9 10 11 12 12 12 12 11 9
5 2 6 4 10 9 12 11 1 14 26 34 32 35 35 31 29 28 27 25 25 27 25 21 20 18 17 16 13 13 15 15 14 13 11 9 8 8 10 11 13 13 14
2 5 1 2 5 2 9 10 2 3 8 13 38 37 35 34 32 30 28 25 28 28 23 22 19 16 14 13 15 15 13 10 12 10 10 8 9 10 6 5 7 8 10
2 2 4 4 3 9 6 6 4 8 5 25 21 24 30 34 33 30 28 27 25 22 18 17 16 15 12 13 16 15 12 9 7 8 9 9 11 11 11 8 7 7 8
3 2 3 4 7 9 7 5 6 3 7 19 17 13 22 27 30 28 23 22 22 17 15 13 12 12 14 16 16 13 11 9 8 8 10 11 11 9 7 6 5 4 4
3 0 3 3 4 5 7 8 5 4 9 24 27 18 13 19 27 23 22 20 16 15 13 9 7 6 7 4 4 5 6 7 7 6 6 5 4 4 5 4 3 8 10
6 4 3 2 3 5 1 2 5 8 11 18 19 5 6 8 21 16 16 14 13 10 9 8 6 5 3 2 3 3 6 8 7 6 3 2 1 2 4 1 9 15 11
11 7 7 5 2 1 7 11 10 12 10 10 14 15 13 11 13 15 14 14 14 13 11 11 10 8 7 6 5 6 5 7 7 3 2 1 3 2 3 5 6 8 11
8 6 6 6 2 5 10 16 14 13 17 17 19 14 14 15 15 16 15 15 16 16 15 14 15 13 11 9 8 9 8 7 7 7 6 7 7 5 5 5 7 6 3
11 7 6 6 4 5 9 14 11 10 14 16 19 19 19 19 17 17 18 17 16 18 16 15 16 13 13 13 11 10 10 9 12 11 12 13 12 12 11 11 9 8 8
13 11 8 6 4 4 5 8 11 10 13 18 18 18 18 19 18 16 15 15 14 16 15 15 14 11 9 9 10 12 12 12 13 13 12 11 10 10 11 11 12 13 11
11 7 7 6 5 4 6 6 7 11 16 17 16 15 16 16 16 16 15 13 11 11 11 12 11 9 9 10 11 12 12 10 10 10 11 11 11 12 12 13 13 12 12
9 6 6 7 7 7 4 6 6 8 13 16 16 15 15 16 16 18 19 15 13 9 8 9 4 12 14 15 15 14 13 12 10 10 11 10 8 9 10 11 11 10 10

GFSMW_925_spd_141.txt.gz
Wind_Speed
11 23 26 26 29 29 28 27 26 21 17 17 14 13 14 14 14 13 11 12 11 8 5 6 2 11 9 7 7 6 6 7 2 1 4 4 4 4 4 4 7 7 5
11 15 23 26 29 33 32 28 27 25 21 18 16 17 17 14 11 14 13 12 10 7 9 7 6 6 7 5 4 4 2 4 6 1 2 3 1 5 8 7 5 9 0
13 12 20 26 27 28 32 30 29 30 25 21 17 16 15 9 13 12 12 13 9 7 4 9 9 5 5 5 6 4 4 5 4 4 1 2 1 5 3 3 7 3 3
10 12 20 23 26 31 34 32 33 29 26 23 19 15 15 11 13 14 15 12 10 8 7 6 8 5 5 4 4 4 4 4 3 4 6 4 3 2 4 8 6 11 8
14 15 23 29 30 29 36 34 30 27 25 22 19 17 18 16 14 15 14 15 13 10 9 8 7 6 6 5 2 1 1 1 1 3 2 1 1 2 1 3 15 14 12
14 17 23 25 25 26 28 34 32 29 28 25 21 18 17 15 16 16 17 17 14 14 12 12 9 7 6 4 2 1 3 4 2 2 2 2 1 2 2 2 4 5 7
6 12 15 21 24 25 28 33 33 31 30 28 25 22 19 17 16 17 18 18 16 15 13 12 12 9 5 5 6 5 4 4 4 4 5 5 5 5 7 6 5 3 3
5 7 18 25 26 27 30 32 35 35 34 31 29 25 22 22 19 17 17 18 17 15 16 16 14 11 8 7 8 7 6 6 5 4 4 2 5 8 8 6 4 2 2
7 11 13 20 26 26 32 36 36 38 38 35 31 28 25 23 22 20 19 16 17 16 16 15 15 13 11 10 9 9 9 8 8 8 6 5 3 4 6 7 5 1 1
8 6 7 21 29 33 35 38 38 41 41 37 35 33 30 27 22 20 21 17 13 15 13 13 15 14 14 12 11 11 11 9 8 7 7 10 8 8 7 8 7 6 4
3 4 2 4 27 31 32 36 36 37 35 39 36 36 34 31 28 25 22 19 17 18 15 13 14 16 18 15 13 13 10 10 10 11 11 11 10 10 8 7 6 7 7
4 3 1 4 1 24 27 30 30 32 40 41 39 37 35 34 31 29 25 21 20 20 19 17 17 16 14 13 13 13 11 9 10 9 9 9 8 9 9 8 9 9 9
4 5 4 4 3 3 23 25 29 36 33 35 37 38 37 36 35 32 29 24 21 20 20 19 17 17 15 15 12 12 11 10 11 10 10 9 9 10 10 10 11 11 11
3 4 1 4 8 9 5 16 26 24 25 29 31 33 36 37 37 35 33 30 27 25 24 21 19 18 16 13 12 12 12 12 13 12 11 10 11 11 11 11 12 12 12
2 6 4 2 9 9 11 9 4 20 26 28 29 33 35 35 37 36 34 32 32 29 26 22 19 17 16 16 15 14 13 14 15 14 14 13 11 10 11 13 13 11 11
2 1 6 5 4 10 7 8 5 4 12 23 29 29 25 32 37 36 33 32 31 27 26 23 22 20 17 15 14 14 16 15 14 17 17 13 13 13 12 10 8 10 11
4 3 4 5 7 7 5 4 5 4 3 6 9 6 9 17 33 38 34 31 30 28 28 26 23 22 17 15 14 16 16 14 13 12 10 11 12 12 12 12 10 10 10
4 3 1 7 5 8 3 7 10 11 10 14 15 14 9 13 22 36 37 33 30 27 23 22 18 17 17 16 15 16 14 12 12 9 8 9 10 10 9 7 7 7 7
2 2 3 4 5 6 6 6 11 20 22 24 27 20 22 30 23 27 35 30 27 22 20 15 11 9 8 6 7 7 7 7 7 6 6 6 5 4 4 6 6 4 1
3 2 1 3 4 6 5 6 4 2 9 16 17 13 17 19 22 17 17 15 16 15 10 10 7 6 2 4 6 7 6 7 5 2 1 0 1 2 4 2 6 7 5
7 5 3 1 4 7 7 5 5 3 4 7 11 16 12 8 5 5 13 10 12 13 12 9 6 7 6 4 4 4 6 8 6 2 1 2 1 2 3 4 5 4 5
5 4 6 7 8 2 7 7 8 8 9 12 13 12 12 9 8 9 10 17 16 17 15 14 13 11 10 8 7 6 6 6 5 5 5 7 7 7 7 6 6 4 5
6 5 7 8 9 7 3 8 8 12 12 14 13 16 13 12 14 14 15 15 10 13 15 15 15 13 11 11 10 10 10 9 10 10 12 12 11 11 11 11 9 8 8
7 7 7 7 8 7 5 5 4 10 16 17 19 17 18 16 14 15 16 17 17 19 18 16 14 11 9 10 11 12 12 13 14 13 12 11 11 11 12 13 13 12 11
12 9 10 6 5 5 6 5 6 9 13 15 16 21 22 20 19 17 17 16 14 14 16 15 15 14 11 11 12 12 12 11 10 10 11 10 10 12 13 13 13 13 12
14 11 10 9 6 4 6 8 5 7 12 15 15 15 17 19 17 20 18 15 12 10 11 12 9 13 15 15 15 14 13 10 9 9 9 8 7 8 10 10 10 11 11

GFSMW_925_spd_147.txt.gz
Wind_Speed
15 12 14 15 12 13 13 14 16 16 14 11 9 8 8 8 8 9 8 6 7 7 6 6 5 5 5 5 4 3 3 3 5 4 6 7 9 8 9 6 6 5 4
13 13 16 16 17 16 15 15 18 18 17 12 11 8 8 7 6 8 7 8 7 6 5 6 4 5 3 6 7 9 5 4 4 2 3 3 1 3 4 4 4 3 3
15 13 16 20 18 18 18 17 20 21 18 16 12 10 8 6 7 7 9 9 7 7 6 7 7 3 1 3 4 3 3 3 4 5 3 2 3 6 3 4 6 6 3
14 13 16 18 22 22 18 17 18 22 22 19 14 12 11 10 8 7 7 8 7 7 7 4 3 5 4 3 3 2 1 3 3 2 4 4 3 3 1 1 6 5 6
17 16 20 22 24 20 21 20 18 20 21 21 19 14 13 11 7 8 9 8 8 7 5 3 3 3 2 3 2 2 2 2 2 1 1 1 2 2 3 4 7 5 4
14 14 19 19 21 19 19 19 20 22 21 21 22 19 14 11 10 8 9 7 7 7 7 7 7 6 4 3 3 3 1 1 2 1 1 2 2 3 3 3 7 8 6
13 14 15 21 21 23 23 21 21 23 23 22 21 23 19 15 16 14 10 9 8 8 8 9 9 7 5 5 5 5 5 3 3 3 2 3 5 4 4 4 4 5 5
12 14 19 22 22 24 23 23 22 23 23 23 24 23 22 15 15 14 11 10 10 10 10 10 9 10 9 8 8 7 6 6 4 5 4 4 5 5 6 5 5 5 5
7 13 15 21 22 23 24 25 24 23 24 25 24 23 22 19 15 14 13 10 12 11 12 11 10 11 12 11 9 8 7 8 7 7 7 7 6 6 5 5 4 4 5
7 9 13 18 19 22 21 21 23 24 25 24 23 23 22 22 20 18 17 16 13 11 12 13 12 12 13 12 13 11 9 8 7 6 6 7 7 7 8 7 7 6 5
10 11 12 13 18 17 18 20 21 23 22 24 24 24 22 22 21 20 19 19 15 15 13 14 13 11 11 12 13 13 11 9 8 6 6 7 7 7 6 6 6 7 6
8 7 3 3 10 12 18 21 22 23 25 25 24 25 23 21 20 19 20 19 18 15 16 14 13 11 10 11 13 12 9 8 8 6 6 6 6 6 4 5 7 8 8
4 4 3 6 4 5 12 20 21 25 23 23 24 23 23 23 23 21 20 19 18 16 15 16 16 14 13 12 11 11 10 10 9 8 8 8 6 6 5 5 6 7 7
5 2 4 7 7 8 10 8 19 25 22 21 23 24 25 25 23 21 20 19 20 20 17 18 18 16 15 13 12 11 11 9 9 9 9 9 8 8 6 6 5 6 8
2 3 2 3 9 4 5 7 9 15 19 20 20 21 21 20 18 19 19 18 17 17 18 19 19 18 17 14 13 13 13 9 9 9 9 10 10 12 12 9 7 5 7
3 4 4 1 3 5 1 2 1 3 10 15 16 15 16 17 19 18 18 17 17 17 17 18 19 20 21 18 17 15 14 11 11 9 7 6 9 10 10 7 7 7 6
4 3 0 2 6 7 4 4 4 2 1 6 9 10 12 15 17 16 16 17 17 16 16 17 17 17 19 21 19 17 16 15 11 7 6 6 5 5 4 6 5 6 6
3 3 3 3 3 2 3 3 6 8 5 4 6 9 10 12 14 15 15 14 13 14 14 13 13 12 19 20 20 18 12 7 6 7 6 5 5 5 3 2 3 1 3
2 2 2 4 5 4 4 2 4 7 8 11 12 9 9 9 12 13 12 10 9 7 8 10 12 14 14 14 8 7 6 9 6 5 4 3 2 2 2 4 5 7 8
3 2 1 2 5 5 7 6 6 7 10 11 15 18 18 18 17 16 18 16 9 5 1 5 9 10 9 6 5 5 7 8 8 7 5 4 2 1 1 5 7 9 8
4 3 2 2 4 5 7 8 7 6 6 8 6 12 11 15 16 16 20 18 13 10 11 13 13 13 9 8 8 7 9 10 9 7 6 5 5 4 5 7 7 8 11
6 4 2 2 4 4 5 8 7 4 4 5 6 2 10 12 12 16 17 18 18 18 21 19 14 12 12 11 9 9 7 9 9 8 9 9 8 7 8 10 12 13 11
7 4 2 1 3 4 2 3 4 3 2 3 5 6 7 8 12 15 17 18 19 24 23 24 19 15 11 15 10 11 11 10 9 10 11 11 10 11 11 11 11 10 8
9 6 3 2 0 2 3 1 3 3 4 3 2 4 10 12 12 16 19 19 21 21 20 19 19 16 14 14 14 14 15 13 13 12 10 9 10 13 13 10 9 8 8
10 8 4 2 1 1 2 2 1 2 7 9 10 9 10 11 14 15 12 13 12 12 18 19 22 20 17 15 15 16 18 16 15 15 11 9 9 10 9 10 10 10 10
10 9 6 4 2 2 1 1 1 4 8 11 12 14 13 12 14 15 15 13 13 12 13 16 16 16 15 17 16 14 15 15 15 11 9 8 9 10 10 9 9 10 10